| time (UTC) | temp F | wind direction | speed knots | gust knots | rain 1hr in | rain 24hr in | rain mn in | humidity % | barometer mb |
| 20260510032920 | 79 | 130 | 1.7 | 4.3 | 0.00 | 0.04 | 0.04 | 100 | 1053.6 |
| 20260510031919 | 79 | 137 | 3.5 | 4.3 | 0.00 | 0.04 | 0.04 | 100 | 1053.6 |
| 20260510030920 | 79 | 149 | 3.5 | 6.1 | 0.00 | 0.04 | 0.04 | 100 | 1053.5 |
| 20260510025919 | 79 | 148 | 0.9 | 2.6 | 0.00 | 0.04 | 0.04 | 100 | 1053.2 |
| 20260510024922 | 79 | 80 | 2.6 | 4.3 | 0.00 | 0.04 | 0.04 | 100 | 1053.0 |
| 20260510024020 | 80 | 87 | 0.9 | 3.5 | 0.00 | 0.04 | 0.04 | 100 | 1052.9 |
| 20260510022120 | 80 | 88 | 1.7 | 2.6 | 0.00 | 0.04 | 0.04 | 100 | 1052.7 |
| 20260510021219 | 81 | 122 | 1.7 | 2.6 | 0.00 | 0.04 | 0.04 | 100 | 1052.7 |
| 20260510020222 | 81 | 138 | 1.7 | 3.5 | 0.00 | 0.04 | 0.04 | 100 | 1052.5 |
| 20260510015220 | 82 | 115 | 0.9 | 3.5 | 0.00 | 0.04 | 0.04 | 100 | 1052.5 |
| 20260510014319 | 82 | 86 | 0.9 | 2.6 | 0.00 | 0.04 | 0.04 | 100 | 1052.3 |
| 20260510013322 | 83 | 139 | 5.2 | 7.0 | 0.00 | 0.04 | 0.04 | 100 | 1052.2 |
| 20260510012322 | 83 | 138 | 3.5 | 5.2 | 0.00 | 0.04 | 0.04 | 100 | 1052.0 |
| 20260510011320 | 83 | 138 | 4.3 | 6.1 | 0.00 | 0.04 | 0.04 | 100 | 1052.1 |
| 20260510005320 | 84 | 136 | 7.0 | 8.7 | 0.00 | 0.04 | 0.04 | 100 | 1052.1 |
| 20260510003421 | 85 | 137 | 3.5 | 5.2 | 0.00 | 0.04 | 0.04 | 100 | 1051.9 |
| 20260510002419 | 85 | 129 | 2.6 | 7.0 | 0.00 | 0.04 | 0.04 | 100 | 1051.9 |
| 20260510001420 | 85 | 138 | 2.6 | 7.0 | 0.00 | 0.04 | 0.04 | 100 | 1051.7 |
| 20260510000420 | 86 | 144 | 3.5 | 7.0 | 0.00 | 0.04 | 0.04 | 100 | 1051.6 |
| 20260509235519 | 85 | 139 | 4.3 | 6.1 | 0.00 | 0.04 | 0.04 | 100 | 1051.6 |
| 20260509233520 | 86 | 136 | 5.2 | 6.1 | 0.00 | 0.04 | 0.04 | 100 | 1051.3 |
| 20260509232519 | 86 | 131 | 1.7 | 4.3 | 0.00 | 0.04 | 0.04 | 100 | 1051.4 |
| 20260509231519 | 86 | 141 | 3.5 | 4.3 | 0.00 | 0.04 | 0.04 | 100 | 1051.3 |
| 20260509230521 | 86 | 137 | 5.2 | 7.0 | 0.00 | 0.04 | 0.04 | 100 | 1051.3 |
| 20260509225520 | 86 | 145 | 2.6 | 4.3 | 0.00 | 0.04 | 0.04 | 100 | 1051.4 |
| 20260509224520 | 85 | 141 | 4.3 | 7.0 | 0.00 | 0.04 | 0.04 | 100 | 1051.4 |
| 20260509223521 | 85 | 103 | 1.7 | 3.5 | 0.00 | 0.04 | 0.04 | 100 | 1051.4 |
| 20260509222619 | 86 | 136 | 5.2 | 6.1 | 0.00 | 0.04 | 0.04 | 100 | 1051.3 |
| 20260509221619 | 86 | 144 | 2.6 | 4.3 | 0.00 | 0.04 | 0.04 | 100 | 1051.3 |
| 20260509220619 | 86 | 140 | 3.5 | 4.3 | 0.00 | 0.04 | 0.04 | 100 | 1051.1 |
| 20260509215619 | 85 | 135 | 3.5 | 4.3 | 0.00 | 0.04 | 0.04 | 100 | 1051.3 |
| 20260509214619 | 85 | 136 | 2.6 | 3.5 | 0.00 | 0.04 | 0.04 | 100 | 1051.4 |
| 20260509213620 | 84 | 197 | 0.0 | 3.5 | 0.00 | 0.04 | 0.04 | 100 | 1051.8 |
| 20260509212719 | 83 | 30 | 0.0 | 1.7 | 0.00 | 0.04 | 0.04 | 100 | 1051.9 |
| 20260509211720 | 84 | 107 | 1.7 | 4.3 | 0.00 | 0.04 | 0.04 | 100 | 1052.1 |
| 20260509210721 | 82 | 129 | 0.0 | 1.7 | 0.00 | 0.04 | 0.04 | 100 | 1051.9 |
| 20260509205720 | 81 | 3 | 0.9 | 3.5 | 0.03 | 0.04 | 0.04 | 100 | 1052.0 |
| 20260509203820 | 80 | 246 | 1.7 | 4.3 | 0.04 | 0.04 | 0.04 | 100 | 1052.1 |
| 20260509202819 | 79 | 20 | 3.5 | 10.4 | 0.04 | 0.04 | 0.04 | 100 | 1051.9 |
| 20260509201820 | 76 | 91 | 0.9 | 4.3 | 0.04 | 0.04 | 0.04 | 100 | 1052.4 |
| 20260509195820 | 78 | 112 | 19.1 | 25.2 | 0.02 | 0.02 | 0.01 | 100 | 1052.9 |
| 20260509194919 | 85 | 109 | 14.8 | 19.1 | 0.00 | 0.00 | 0.00 | 100 | 1052.4 |
| 20260509193920 | 90 | 140 | 5.2 | 7.8 | 0.00 | 0.00 | 0.00 | 100 | 1052.6 |
| 20260509192918 | 90 | 288 | 3.5 | 6.1 | 0.00 | 0.00 | 0.00 | 100 | 1052.5 |
| 20260509191921 | 90 | 284 | 0.9 | 1.7 | 0.00 | 0.00 | 0.00 | 100 | 1052.7 |
| 20260509190935 | 89 | 57 | 1.7 | 4.3 | 0.00 | 0.00 | 0.00 | 100 | 1052.8 |
| 20260509190020 | 88 | 130 | 1.7 | 4.3 | 0.00 | 0.00 | 0.00 | 100 | 1052.9 |
| 20260509185018 | 89 | 292 | 2.6 | 4.3 | 0.00 | 0.00 | 0.00 | 100 | 1053.0 |
| 20260509184018 | 88 | 299 | 1.7 | 5.2 | 0.00 | 0.00 | 0.00 | 100 | 1053.2 |
| 20260509183020 | 88 | 20 | 0.0 | 1.7 | 0.00 | 0.00 | 0.00 | 100 | 1053.5 |
| 20260509182020 | 87 | 248 | 2.6 | 7.0 | 0.00 | 0.00 | 0.00 | 100 | 1053.5 |
| 20260509181020 | 86 | 191 | 1.7 | 4.3 | 0.00 | 0.00 | 0.00 | 100 | 1053.8 |
| 20260509175019 | 86 | 75 | 0.9 | 1.7 | 0.00 | 0.00 | 0.00 | 100 | 1053.8 |
| 20260509174019 | 85 | 240 | 1.7 | 3.5 | 0.00 | 0.00 | 0.00 | 100 | 1054.1 |
| 20260509173020 | 85 | 36 | 0.0 | 3.5 | 0.00 | 0.00 | 0.00 | 100 | 1054.5 |
| 20260509172018 | 84 | 7 | 0.0 | 1.7 | 0.00 | 0.00 | 0.00 | 100 | 1054.4 |
| 20260509171020 | 83 | 188 | 1.7 | 2.6 | 0.00 | 0.00 | 0.00 | 100 | 1054.2 |
| 20260509170018 | 82 | 262 | 5.2 | 7.8 | 0.00 | 0.00 | 0.00 | 100 | 1054.2 |
| 20260509165020 | 81 | 246 | 1.7 | 4.3 | 0.00 | 0.00 | 0.00 | 100 | 1054.5 |
| 20260509164119 | 82 | 256 | 2.6 | 4.3 | 0.00 | 0.00 | 0.00 | 100 | 1054.5 |
| 20260509163119 | 83 | 245 | 2.6 | 4.3 | 0.00 | 0.00 | 0.00 | 100 | 1054.5 |
| 20260509162118 | 83 | 205 | 0.0 | 1.7 | 0.00 | 0.00 | 0.00 | 100 | 1054.6 |
| 20260509161218 | 81 | 103 | 0.0 | 1.7 | 0.00 | 0.00 | 0.00 | 100 | 1054.3 |
| 20260509155219 | 79 | 257 | 2.6 | 4.3 | 0.00 | 0.00 | 0.00 | 100 | 1054.3 |
| 20260509152221 | 76 | 248 | 2.6 | 4.3 | 0.00 | 0.00 | 0.00 | 100 | 1054.6 |
| 20260509151218 | 75 | 248 | 0.9 | 4.3 | 0.00 | 0.00 | 0.00 | 100 | 1054.5 |
| 20260509150218 | 75 | 96 | 1.7 | 5.2 | 0.00 | 0.00 | 0.00 | 100 | 1054.4 |
| 20260509142219 | 74 | 176 | 1.7 | 5.2 | 0.00 | 0.00 | 0.00 | 100 | 1054.1 |
| 20260509141317 | 74 | 89 | 0.9 | 2.6 | 0.00 | 0.00 | 0.00 | 100 | 1053.6 |
| 20260509135418 | 73 | 154 | 0.9 | 1.7 | 0.00 | 0.00 | 0.00 | 100 | 1054.0 |
| 20260509134419 | 73 | 334 | 0.0 | 1.7 | 0.00 | 0.00 | 0.00 | 100 | 1054.1 |
| 20260509133419 | 73 | 12 | 2.6 | 3.5 | 0.00 | 0.00 | 0.00 | 100 | 1054.5 |
| 20260509132518 | 73 | 359 | 0.9 | 3.5 | 0.00 | 0.00 | 0.00 | 100 | 1054.3 |
| 20260509131518 | 74 | 58 | 0.9 | 3.5 | 0.00 | 0.00 | 0.00 | 100 | 1054.3 |
| 20260509125618 | 73 | 93 | 0.9 | 5.2 | 0.00 | 0.00 | 0.00 | 100 | 1053.8 |
| 20260509124618 | 73 | 318 | 0.0 | 0.9 | 0.00 | 0.00 | 0.00 | 100 | 1053.6 |
| 20260509123619 | 73 | 124 | 0.0 | 0.0 | 0.00 | 0.00 | 0.00 | 100 | 1053.5 |
| 20260509121718 | 73 | 135 | 3.5 | 4.3 | 0.00 | 0.00 | 0.00 | 100 | 1053.7 |
| 20260509120718 | 73 | 112 | 0.0 | 0.0 | 0.00 | 0.00 | 0.00 | 100 | 1054.0 |
| 20260509115721 | 73 | 49 | 0.0 | 0.9 | 0.00 | 0.00 | 0.00 | 100 | 1054.0 |
| 20260509114718 | 73 | 73 | 0.0 | 2.6 | 0.00 | 0.00 | 0.00 | 100 | 1053.8 |
| 20260509113719 | 72 | 70 | 2.6 | 5.2 | 0.00 | 0.00 | 0.00 | 100 | 1054.3 |
| 20260509111719 | 72 | 131 | 2.6 | 3.5 | 0.00 | 0.00 | 0.00 | 100 | 1054.5 |
| 20260509110818 | 73 | 24 | 0.0 | 0.9 | 0.00 | 0.00 | 0.00 | 100 | 1054.5 |
| 20260509105818 | 73 | 22 | 0.9 | 1.7 | 0.00 | 0.00 | 0.00 | 100 | 1054.7 |
| 20260509103819 | 73 | 127 | 3.5 | 5.2 | 0.00 | 0.00 | 0.00 | 100 | 1054.9 |
| 20260509101819 | 72 | 96 | 5.2 | 7.0 | 0.00 | 0.00 | 0.00 | 100 | 1054.6 |
| 20260509100817 | 72 | 131 | 2.6 | 3.5 | 0.00 | 0.00 | 0.00 | 100 | 1054.0 |
| 20260509095817 | 72 | 131 | 1.7 | 3.5 | 0.00 | 0.00 | 0.00 | 100 | 1053.5 |
| 20260509094818 | 72 | 112 | 0.9 | 1.7 | 0.00 | 0.00 | 0.00 | 100 | 1053.6 |
| 20260509093818 | 72 | 135 | 1.7 | 2.6 | 0.00 | 0.00 | 0.00 | 100 | 1053.6 |
| 20260509090919 | 72 | 114 | 2.6 | 3.5 | 0.00 | 0.00 | 0.00 | 100 | 1053.3 |
| 20260509085919 | 72 | 135 | 3.5 | 3.5 | 0.00 | 0.00 | 0.00 | 100 | 1053.2 |
| 20260509084918 | 72 | 137 | 3.5 | 3.5 | 0.00 | 0.00 | 0.00 | 100 | 1053.3 |
| 20260509083017 | 72 | 128 | 3.5 | 4.3 | 0.00 | 0.00 | 0.00 | 100 | 1053.7 |
| 20260509082019 | 72 | 112 | 5.2 | 6.1 | 0.00 | 0.00 | 0.00 | 100 | 1054.0 |
| 20260509080119 | 72 | 112 | 5.2 | 6.1 | 0.00 | 0.00 | 0.00 | 100 | 1053.8 |
| 20260509075120 | 72 | 112 | 3.5 | 4.3 | 0.00 | 0.00 | 0.00 | 100 | 1053.6 |
| 20260509074118 | 72 | 141 | 2.6 | 3.5 | 0.00 | 0.00 | 0.00 | 100 | 1053.7 |
| 20260509072118 | 72 | 112 | 1.7 | 2.6 | 0.00 | 0.00 | 0.00 | 100 | 1053.8 |
| 20260509071217 | 72 | 225 | 0.0 | 0.0 | 0.00 | 0.00 | 0.00 | 100 | 1054.0 |
| 20260509070220 | 72 | 213 | 1.7 | 2.6 | 0.00 | 0.00 | 0.00 | 100 | 1054.0 |
| 20260509065219 | 72 | 157 | 0.0 | 0.0 | 0.00 | 0.00 | 0.00 | 100 | 1053.7 |
| 20260509064317 | 72 | 22 | 0.0 | 0.9 | 0.00 | 0.00 | 0.00 | 100 | 1053.5 |
| 20260509063417 | 72 | 112 | 0.9 | 1.7 | 0.00 | 0.00 | 0.00 | 100 | 1053.6 |
| 20260509062419 | 72 | 44 | 0.9 | 2.6 | 0.00 | 0.00 | 0.00 | 100 | 1053.8 |
| 20260509061517 | 72 | 328 | 0.9 | 2.6 | 0.00 | 0.00 | 0.00 | 100 | 1053.5 |
| 20260509055518 | 73 | 79 | 2.6 | 5.2 | 0.00 | 0.00 | 0.00 | 100 | 1053.3 |
| 20260509053517 | 73 | 127 | 2.6 | 7.8 | 0.00 | 0.00 | 0.00 | 100 | 1053.4 |
| 20260509052519 | 74 | 303 | 0.9 | 3.5 | 0.00 | 0.00 | 0.00 | 100 | 1053.1 |
| 20260509050639 | 74 | 152 | 0.9 | 3.5 | 0.00 | 0.00 | 0.00 | 100 | 1052.9 |
| 20260509045644 | 74 | 146 | 0.9 | 3.5 | 0.00 | 0.00 | 0.00 | 100 | 1052.9 |
| 20260509044645 | 74 | 138 | 1.7 | 4.3 | 0.00 | 0.00 | 0.00 | 100 | 1052.9 |
| 20260509043646 | 74 | 73 | 1.7 | 5.2 | 0.00 | 0.00 | 0.00 | 100 | 1053.0 |
| 20260509042744 | 75 | 122 | 0.0 | 1.7 | 0.00 | 0.00 | 0.00 | 100 | 1052.9 |
| 20260509041744 | 75 | 79 | 1.7 | 4.3 | 0.00 | 0.00 | 0.00 | 100 | 1053.1 |
| 20260509040843 | 75 | 53 | 0.9 | 3.5 | 0.00 | 0.00 | 0.00 | 100 | 1053.2 |
| 20260509035843 | 75 | 5 | 1.7 | 3.5 | 0.00 | 0.00 | 0.00 | 100 | 1053.3 |
| 20260509034844 | 75 | 62 | 1.7 | 4.3 | 0.00 | 0.00 | 0.00 | 100 | 1053.2 |
| 20260509033943 | 75 | 127 | 0.0 | 1.7 | 0.00 | 0.00 | 0.00 | 100 | 1053.1 |